User: anonymous   Login
Location: Mentone
(34.5413°N, 85.5351°W)
Time: 01:07:59
(UTC-05:00)
Language:

Tiros 1 despin weight - Orbit

View from above orbital plane
View from above orbital plane
View from above satellite
View from above satellite

Ground track
Ground track

The orbit data is extracted from the following two-line orbital elements,

1 00115U 60002D   15237.73918397  .00000500  00000-0  88988-4 0  9990
2 00115 048.1665 080.5647 0035036 067.1659 293.2947 14.82268193952062
Epoch (UTC): 25 August 2015 17:44:25
Eccentricity: 0.0035036
inclination: 48.1665°
perigee height: 597 km
apogee height: 647 km
right ascension of ascending node: 80.5647°
argument of perigee: 67.1659°
revolutions per day: 14.82268193
mean anomaly at epoch: 293.2947°
orbit number at epoch: 95206

The dashed part of the orbit path shows where the satellite is in the earth's shadow,  

DLR